Location: Unspecified
(41.9450°N, 0.0000°E)
Time: 21:22:19
(UTC+00:00)

OPS 6073 - Visible Passes

Search period start: 04 April 2026 00:00
Search period end: 14 April 2026 00:00
Orbit: 763 x 832 km, 99.1° (Epoch: 28 March)

Date Brightness Start Highest point End Pass type
(mag) Time Alt. Az. Time Alt. Az. Time Alt. Az.
4 Apr 9.6 05:06:11 10° NNE 05:11:00 34° E 05:15:41 10° SSE visible
5 Apr 10.4 04:39:45 10° NE 04:43:28 19° E 04:47:08 10° SE visible
8 Apr 10.0 04:56:56 10° NE 05:01:23 27° E 05:05:44 10° SSE visible
9 Apr 10.5 04:30:50 10° NE 04:33:48 15° E 04:36:45 10° SE visible
12 Apr 10.3 04:47:45 10° NE 04:51:45 22° E 04:55:39 10° SE visible
13 Apr 10.8 04:22:20 10° ENE 04:24:07 12° E 04:25:53 10° ESE visible
